Time,TemperatureF,DewpointF,PressureIn,WindDirection,WindDirectionDegrees,WindSpeedMPH,WindSpeedGustMPH,Humidity,HourlyPrecipIn,Conditions,Clouds,dailyrainin,SolarRadiationWatts/m^2,SoftwareType,DateUTC
2013-06-05 00:03:00,66.0,63.0,30.35,NE,44,5.0,9.0,90,0.00,,,0.00,0.000000,,2013-06-05 04:03:00,
2013-06-05 00:13:00,66.0,63.0,30.35,NE,44,5.0,9.0,90,0.00,,,0.00,0.000000,,2013-06-05 04:13:00,
2013-06-05 00:33:00,65.0,62.0,30.35,NE,46,5.0,10.0,91,0.00,,,0.00,0.000000,,2013-06-05 04:33:00,
2013-06-05 00:42:00,65.0,62.0,30.35,NE,46,5.0,10.0,91,0.00,,,0.00,0.000000,,2013-06-05 04:42:00,
2013-06-05 00:53:00,65.0,62.0,30.35,NE,46,5.0,10.0,91,0.00,,,0.00,0.000000,,2013-06-05 04:53:00,
2013-06-05 01:02:00,65.0,62.0,30.35,NE,46,5.0,10.0,91,0.00,,,0.00,0.000000,,2013-06-05 05:02:00,
2013-06-05 01:12:00,65.0,62.0,30.35,NE,46,5.0,10.0,91,0.00,,,0.00,0.000000,,2013-06-05 05:12:00,
2013-06-05 01:32:00,67.0,64.0,30.35,NE,44,5.0,8.0,89,0.00,,,0.00,0.000000,,2013-06-05 05:32:00,
2013-06-05 01:42:00,67.0,64.0,30.35,NE,44,5.0,8.0,89,0.00,,,0.00,0.000000,,2013-06-05 05:42:00,
2013-06-05 01:53:00,67.0,64.0,30.35,NE,44,5.0,8.0,89,0.00,,,0.00,0.000000,,2013-06-05 05:53:00,
2013-06-05 02:02:00,67.0,64.0,30.35,NE,44,5.0,8.0,89,0.00,,,0.00,0.000000,,2013-06-05 06:02:00,
2013-06-05 02:12:00,67.0,64.0,30.35,NE,44,5.0,8.0,89,0.00,,,0.00,0.000000,,2013-06-05 06:12:00,
2013-06-05 02:32:00,66.0,61.0,30.34,ENE,59,4.0,7.0,83,0.00,,,0.00,0.000000,,2013-06-05 06:32:00,
2013-06-05 02:42:00,66.0,61.0,30.34,ENE,59,4.0,7.0,83,0.00,,,0.00,0.000000,,2013-06-05 06:42:00,
2013-06-05 02:52:00,66.0,61.0,30.34,ENE,59,4.0,7.0,83,0.00,,,0.00,0.000000,,2013-06-05 06:52:00,
2013-06-05 03:02:00,66.0,61.0,30.34,ENE,59,4.0,7.0,83,0.00,,,0.00,0.000000,,2013-06-05 07:02:00,
2013-06-05 03:12:00,66.0,61.0,30.34,ENE,59,4.0,7.0,83,0.00,,,0.00,0.000000,,2013-06-05 07:12:00,
2013-06-05 03:32:00,67.0,62.0,30.32,ENE,65,5.0,11.0,84,0.00,,,0.00,0.000000,,2013-06-05 07:32:00,
2013-06-05 03:42:00,67.0,62.0,30.32,ENE,65,5.0,11.0,84,0.00,,,0.00,0.000000,,2013-06-05 07:42:00,
2013-06-05 03:52:00,67.0,62.0,30.32,ENE,65,5.0,11.0,84,0.00,,,0.00,0.000000,,2013-06-05 07:52:00,
2013-06-05 04:02:00,67.0,62.0,30.32,ENE,65,5.0,11.0,84,0.00,,,0.00,0.000000,,2013-06-05 08:02:00,
2013-06-05 04:12:00,67.0,62.0,30.32,ENE,65,5.0,11.0,84,0.00,,,0.00,0.000000,,2013-06-05 08:12:00,
2013-06-05 04:32:00,66.0,61.0,30.33,NE,51,4.0,10.0,85,0.00,,,0.00,0.000000,,2013-06-05 08:32:00,
2013-06-05 04:42:00,66.0,61.0,30.33,NE,51,4.0,10.0,85,0.00,,,0.00,0.000000,,2013-06-05 08:42:00,
2013-06-05 04:52:00,66.0,61.0,30.33,NE,51,4.0,10.0,85,0.00,,,0.00,0.000000,,2013-06-05 08:52:00,
2013-06-05 05:02:00,66.0,61.0,30.33,NE,51,4.0,10.0,85,0.00,,,0.00,0.000000,,2013-06-05 09:02:00,
2013-06-05 05:12:00,66.0,61.0,30.33,NE,51,4.0,10.0,85,0.00,,,0.00,0.000000,,2013-06-05 09:12:00,
2013-06-05 05:33:00,66.0,62.0,30.33,NE,48,3.0,6.0,87,0.00,,,0.00,0.000000,,2013-06-05 09:33:00,
2013-06-05 05:43:00,66.0,62.0,30.33,NE,48,3.0,6.0,87,0.00,,,0.00,0.000000,,2013-06-05 09:43:00,
2013-06-05 05:53:00,66.0,62.0,30.33,NE,48,3.0,6.0,87,0.00,,,0.00,0.000000,,2013-06-05 09:53:00,
2013-06-05 06:03:00,66.0,62.0,30.33,NE,48,3.0,6.0,87,0.00,,,0.00,0.000000,,2013-06-05 10:03:00,
2013-06-05 06:12:00,66.0,62.0,30.33,NE,48,3.0,6.0,87,0.00,,,0.00,0.000000,,2013-06-05 10:12:00,
2013-06-05 06:33:00,66.0,62.0,30.35,South,170,3.0,8.0,88,0.00,,,0.00,0.000000,,2013-06-05 10:33:00,
2013-06-05 06:43:00,66.0,62.0,30.35,South,170,3.0,8.0,88,0.00,,,0.00,0.000000,,2013-06-05 10:43:00,
2013-06-05 06:53:00,66.0,62.0,30.35,South,170,3.0,8.0,88,0.00,,,0.00,0.000000,,2013-06-05 10:53:00,
2013-06-05 07:02:00,66.0,62.0,30.35,South,170,3.0,8.0,88,0.00,,,0.00,0.000000,,2013-06-05 11:02:00,
2013-06-05 07:12:00,66.0,62.0,30.35,South,170,3.0,8.0,88,0.00,,,0.00,0.000000,,2013-06-05 11:12:00,
2013-06-05 07:33:00,67.0,64.0,30.36,East,81,2.0,6.0,90,0.00,,,0.00,6.000000,,2013-06-05 11:33:00,
2013-06-05 07:42:00,67.0,64.0,30.36,East,81,2.0,6.0,90,0.00,,,0.00,6.000000,,2013-06-05 11:42:00,
2013-06-05 07:52:00,67.0,64.0,30.36,East,81,2.0,6.0,90,0.00,,,0.00,6.000000,,2013-06-05 11:52:00,
2013-06-05 08:02:00,67.0,64.0,30.36,East,81,2.0,6.0,90,0.00,,,0.00,6.000000,,2013-06-05 12:02:00,
2013-06-05 08:12:00,67.0,64.0,30.36,East,81,2.0,6.0,90,0.00,,,0.00,6.000000,,2013-06-05 12:12:00,
2013-06-05 08:32:00,69.0,66.0,30.37,East,82,4.0,7.0,89,0.00,,,0.00,41.000000,,2013-06-05 12:32:00,
2013-06-05 08:44:00,69.0,66.0,30.37,East,82,4.0,7.0,89,0.00,,,0.00,41.000000,,2013-06-05 12:44:00,
2013-06-05 08:52:00,69.0,66.0,30.37,East,82,4.0,7.0,89,0.00,,,0.00,41.000000,,2013-06-05 12:52:00,
2013-06-05 09:02:00,69.0,66.0,30.37,East,82,4.0,7.0,89,0.00,,,0.00,41.000000,,2013-06-05 13:02:00,
2013-06-05 09:12:00,69.0,66.0,30.37,East,82,4.0,7.0,89,0.00,,,0.00,41.000000,,2013-06-05 13:12:00,
2013-06-05 09:33:00,73.0,63.0,30.38,East,100,5.0,10.0,72,0.00,,,0.00,171.000000,,2013-06-05 13:33:00,
2013-06-05 09:42:00,73.0,63.0,30.38,East,100,5.0,10.0,72,0.00,,,0.00,171.000000,,2013-06-05 13:42:00,
2013-06-05 09:53:00,73.0,63.0,30.38,East,100,5.0,10.0,72,0.00,,,0.00,171.000000,,2013-06-05 13:53:00,
2013-06-05 10:02:00,73.0,63.0,30.38,East,100,5.0,10.0,72,0.00,,,0.00,171.000000,,2013-06-05 14:02:00,
2013-06-05 10:12:00,73.0,63.0,30.38,East,100,5.0,10.0,72,0.00,,,0.00,171.000000,,2013-06-05 14:12:00,
2013-06-05 10:42:00,70.0,62.0,30.38,WNW,286,4.0,10.0,75,0.00,,,0.00,149.000000,,2013-06-05 14:42:00,
2013-06-05 10:52:00,70.0,62.0,30.38,WNW,286,4.0,10.0,75,0.00,,,0.00,149.000000,,2013-06-05 14:52:00,
2013-06-05 11:03:00,70.0,62.0,30.38,WNW,286,4.0,10.0,75,0.00,,,0.00,149.000000,,2013-06-05 15:03:00,
2013-06-05 11:12:00,70.0,62.0,30.38,WNW,286,4.0,10.0,75,0.00,,,0.00,149.000000,,2013-06-05 15:12:00,
2013-06-05 11:33:00,68.0,62.0,30.39,East,87,3.0,10.0,82,0.01,,,0.01,88.000000,,2013-06-05 15:33:00,
2013-06-05 11:43:00,68.0,62.0,30.39,East,87,3.0,10.0,82,0.01,,,0.01,88.000000,,2013-06-05 15:43:00,
2013-06-05 11:53:00,68.0,62.0,30.39,East,87,3.0,10.0,82,0.01,,,0.01,88.000000,,2013-06-05 15:53:00,
2013-06-05 12:04:00,68.0,62.0,30.39,East,87,3.0,10.0,82,0.01,,,0.01,88.000000,,2013-06-05 16:04:00,
2013-06-05 12:13:00,68.0,62.0,30.39,East,87,3.0,10.0,82,0.01,,,0.01,88.000000,,2013-06-05 16:13:00,
2013-06-05 12:32:00,67.0,65.0,30.39,East,92,4.0,7.0,94,0.05,,,0.06,117.000000,,2013-06-05 16:32:00,
2013-06-05 12:42:00,67.0,65.0,30.39,East,92,4.0,7.0,94,0.05,,,0.06,117.000000,,2013-06-05 16:42:00,
2013-06-05 12:54:00,67.0,65.0,30.39,East,92,4.0,7.0,94,0.05,,,0.06,117.000000,,2013-06-05 16:54:00,
2013-06-05 13:02:00,67.0,65.0,30.39,East,92,4.0,7.0,94,0.05,,,0.06,117.000000,,2013-06-05 17:02:00,
2013-06-05 13:13:00,67.0,65.0,30.39,East,92,4.0,7.0,94,0.05,,,0.06,117.000000,,2013-06-05 17:13:00,
2013-06-05 13:33:00,66.0,62.0,30.37,ENE,65,7.0,14.0,88,0.01,,,0.07,200.000000,,2013-06-05 17:33:00,
2013-06-05 13:43:00,66.0,62.0,30.37,ENE,65,7.0,14.0,88,0.01,,,0.07,200.000000,,2013-06-05 17:43:00,
2013-06-05 13:52:00,66.0,62.0,30.37,ENE,65,7.0,14.0,88,0.01,,,0.07,200.000000,,2013-06-05 17:52:00,
2013-06-05 14:02:00,66.0,62.0,30.37,ENE,65,7.0,14.0,88,0.01,,,0.07,200.000000,,2013-06-05 18:02:00,
2013-06-05 14:13:00,66.0,62.0,30.37,ENE,65,7.0,14.0,88,0.01,,,0.07,200.000000,,2013-06-05 18:13:00,
2013-06-05 14:42:00,70.0,63.0,30.35,NE,38,6.0,14.0,78,0.01,,,0.08,335.000000,,2013-06-05 18:42:00,
2013-06-05 14:52:00,70.0,63.0,30.35,NE,38,6.0,14.0,78,0.01,,,0.08,335.000000,,2013-06-05 18:52:00,
2013-06-05 15:03:00,70.0,63.0,30.35,NE,38,6.0,14.0,78,0.01,,,0.08,335.000000,,2013-06-05 19:03:00,
2013-06-05 15:13:00,70.0,63.0,30.35,NE,38,6.0,14.0,78,0.01,,,0.08,335.000000,,2013-06-05 19:13:00,
2013-06-05 15:32:00,75.0,64.0,30.33,ENE,59,7.0,16.0,69,0.00,,,0.08,790.000000,,2013-06-05 19:32:00,
2013-06-05 15:42:00,75.0,64.0,30.33,ENE,59,7.0,16.0,69,0.00,,,0.08,790.000000,,2013-06-05 19:42:00,
2013-06-05 15:53:00,75.0,64.0,30.33,ENE,59,7.0,16.0,69,0.00,,,0.08,790.000000,,2013-06-05 19:53:00,
2013-06-05 16:03:00,75.0,64.0,30.33,ENE,59,7.0,16.0,69,0.00,,,0.08,790.000000,,2013-06-05 20:03:00,
2013-06-05 16:12:00,75.0,64.0,30.33,ENE,59,7.0,16.0,69,0.00,,,0.08,790.000000,,2013-06-05 20:12:00,
2013-06-05 16:32:00,79.0,65.0,30.31,SE,145,3.0,18.0,62,0.00,,,0.08,760.000000,,2013-06-05 20:32:00,
2013-06-05 17:02:00,79.0,65.0,30.31,SE,145,3.0,18.0,62,0.00,,,0.08,760.000000,,2013-06-05 21:02:00,
2013-06-05 17:12:00,79.0,65.0,30.31,SE,145,3.0,18.0,62,0.00,,,0.08,760.000000,,2013-06-05 21:12:00,
2013-06-05 17:33:00,79.0,66.0,30.30,ESE,103,2.0,11.0,65,0.00,,,0.08,634.000000,,2013-06-05 21:33:00,
2013-06-05 17:43:00,79.0,66.0,30.30,ESE,103,2.0,11.0,65,0.00,,,0.08,634.000000,,2013-06-05 21:43:00,
2013-06-05 17:53:00,79.0,66.0,30.30,ESE,103,2.0,11.0,65,0.00,,,0.08,634.000000,,2013-06-05 21:53:00,
2013-06-05 18:03:00,79.0,66.0,30.30,ESE,103,2.0,11.0,65,0.00,,,0.08,634.000000,,2013-06-05 22:03:00,
2013-06-05 18:13:00,79.0,66.0,30.30,ESE,103,2.0,11.0,65,0.00,,,0.08,634.000000,,2013-06-05 22:13:00,
2013-06-05 18:33:00,81.0,66.0,30.28,ENE,71,5.0,13.0,61,0.00,,,0.08,367.000000,,2013-06-05 22:33:00,
2013-06-05 18:43:00,81.0,66.0,30.28,ENE,71,5.0,13.0,61,0.00,,,0.08,367.000000,,2013-06-05 22:43:00,
2013-06-05 18:53:00,81.0,66.0,30.28,ENE,71,5.0,13.0,61,0.00,,,0.08,367.000000,,2013-06-05 22:53:00,
2013-06-05 19:02:00,81.0,66.0,30.28,ENE,71,5.0,13.0,61,0.00,,,0.08,367.000000,,2013-06-05 23:02:00,
2013-06-05 19:12:00,81.0,66.0,30.28,ENE,71,5.0,13.0,61,0.00,,,0.08,367.000000,,2013-06-05 23:12:00,
2013-06-05 19:32:00,75.0,64.0,30.27,NE,37,5.0,14.0,68,0.00,,,0.08,253.000000,,2013-06-05 23:32:00,
2013-06-05 19:42:00,75.0,64.0,30.27,NE,37,5.0,14.0,68,0.00,,,0.08,253.000000,,2013-06-05 23:42:00,
2013-06-05 19:53:00,75.0,64.0,30.27,NE,37,5.0,14.0,68,0.00,,,0.08,253.000000,,2013-06-05 23:53:00,
2013-06-05 20:02:00,75.0,64.0,30.27,NE,37,5.0,14.0,68,0.00,,,0.08,253.000000,,2013-06-06 00:02:00,
2013-06-05 20:12:00,75.0,64.0,30.27,NE,37,5.0,14.0,68,0.00,,,0.08,253.000000,,2013-06-06 00:12:00,
2013-06-05 20:43:00,73.0,64.0,30.28,NNW,341,6.0,32.0,73,0.00,,,0.08,82.000000,,2013-06-06 00:43:00,
2013-06-05 20:52:00,73.0,64.0,30.28,NNW,341,6.0,32.0,73,0.00,,,0.08,82.000000,,2013-06-06 00:52:00,
2013-06-05 21:02:00,73.0,64.0,30.28,NNW,341,6.0,32.0,73,0.00,,,0.08,82.000000,,2013-06-06 01:02:00,
2013-06-05 21:12:00,73.0,64.0,30.28,NNW,341,6.0,32.0,73,0.00,,,0.08,82.000000,,2013-06-06 01:12:00,
2013-06-05 21:32:00,72.0,62.0,30.27,ENE,69,6.0,65.0,71,0.00,,,0.08,3.000000,,2013-06-06 01:32:00,
2013-06-05 21:42:00,72.0,62.0,30.27,ENE,69,6.0,65.0,71,0.00,,,0.08,3.000000,,2013-06-06 01:42:00,
2013-06-05 21:53:00,72.0,62.0,30.27,ENE,69,6.0,65.0,71,0.00,,,0.08,3.000000,,2013-06-06 01:53:00,
2013-06-05 22:02:00,72.0,62.0,30.27,ENE,69,6.0,65.0,71,0.00,,,0.08,3.000000,,2013-06-06 02:02:00,
2013-06-05 22:12:00,72.0,62.0,30.27,ENE,69,6.0,65.0,71,0.00,,,0.08,3.000000,,2013-06-06 02:12:00,
2013-06-05 22:32:00,71.0,60.0,30.29,ESE,116,4.0,13.0,69,0.00,,,0.08,0.000000,,2013-06-06 02:32:00,
2013-06-05 22:42:00,71.0,60.0,30.29,ESE,116,4.0,13.0,69,0.00,,,0.08,0.000000,,2013-06-06 02:42:00,
2013-06-05 22:52:00,71.0,60.0,30.29,ESE,116,4.0,13.0,69,0.00,,,0.08,0.000000,,2013-06-06 02:52:00,
2013-06-05 23:02:00,71.0,60.0,30.29,ESE,116,4.0,13.0,69,0.00,,,0.08,0.000000,,2013-06-06 03:02:00,
2013-06-05 23:12:00,71.0,60.0,30.29,ESE,116,4.0,13.0,69,0.00,,,0.08,0.000000,,2013-06-06 03:12:00,
2013-06-05 23:33:00,66.0,66.0,30.29,East,81,3.0,14.0,99,0.27,,,0.35,0.000000,,2013-06-06 03:33:00,
2013-06-05 23:43:00,66.0,66.0,30.29,East,81,3.0,14.0,99,0.27,,,0.35,0.000000,,2013-06-06 03:43:00,
2013-06-05 23:53:00,66.0,66.0,30.29,East,81,3.0,14.0,99,0.27,,,0.35,0.000000,,2013-06-06 03:53:00,